EUTELSAT 36D

Last updated on Thu Jul 03 2025 00:02:49 GMT+0000 (Coordinated Universal Time)

1 59346U 24059A 25183.57370248 .00000163 00000+0 00000+0 0 9990 2 59346 0.0115 321.5774 0000574 214.3659 347.2865 1.00271431 4649
UTC large
Height (km)
Speed (km/s)
/
Latitude / Longitude
Inclination (degrees)
Orbital Period (minutes)
Azimuth
Elevation
Range (km)
Doppler Factor

Next 0 passes for location: London (51.5072 / 0.1276)

Sorry there are no passes over London.